World > North America > United States > New York

Hourly Whitesville, NY Regional Weather

Feedback E-mail the Weather

Latest News

Whitesville, NY Weather Maps

°F °C°F °C
Whitesville Weather Map
UTC Time: 5/27/2022, 00:06
Your Time:

Whitesville, NY Regional Weather

Expires:202205270000;;623275
ASUS41 KALY 262310
RWRALY

NEW YORK STATE HOURLY WEATHER ROUNDUP
NATIONAL WEATHER SERVICE ALBANY NY
700 PM EDT THU MAY 26 2022

NOTE: "FAIR" INDICATES FEW OR NO CLOUDS BELOW 12,000 FEET WITH NO
SIGNIFICANT WEATHER AND/OR NO OBSTRUCTIONS TO VISIBILITY.


NYZ001>004-010>016-019>021-085-270000-
WEST

  
CITY           SKY/WX    TMP DP  RH WIND       PRES   REMARKS
NIAGARA FALLS  CLOUDY    76  62  62 S8        29.86F                  
BUFFALO        PTSUNNY   77  63  61 S10       29.87F                  
DUNKIRK        MOSUNNY   81  63  54 S14G22    29.88F                  
JAMESTOWN      CLOUDY    74  62  66 SW12      29.93F                  
WELLSVILLE     PTSUNNY   72  58  61 S13G26    29.99F                  
ROCHESTER      PTSUNNY   79  60  52 S9        29.88F                  
PENN YAN       MOSUNNY   75  56  51 S13G24    29.96F                  
$$

             KEY
       WCI = WIND CHILL INDEX
       VSB = VISIBILITY
       HX  = HEAT INDEX
$$
  

SKY/WX - Weather  TMP - Temperature  DP - Dew Point  RH - Humidity
WIND - Wind Direction/Speed PRES - Barometric Pressure VSB - Visibility
WCI - Wind Chill Index E13G22 Wind - East Wind 13 mph/Gusts of 22 mph

Trending Headlines

Whitesville Radar Loop



Whitesville Quick Facts


National Two Day Weather Forecast


E-mail the Whitesville Weather Forecast

Voice your opinion or tell us about page issues...